Cloud_Cover
0 0 0 0 0 68 59 99 92 5 0 0 0 0 0 0 0 0 0 35 31 33 67 59 28 0 0 0 0 0 0 0 0 0 0 0 0 0 0 0 0 0 0 0
0 0 0 0 0 0 4 5 8 5 0 0 3 0 0 0 0 0 0 0 4 41 100 73 39 15 0 0 0 0 0 0 0 0 0 0 0 0 0 0 0 0 0 0
0 0 0 0 0 0 0 2 5 5 3 0 4 0 0 0 0 0 0 0 0 0 19 37 23 11 9 0 0 0 0 0 0 0 0 0 0 0 0 0 0 0 0 0
0 0 0 0 0 0 0 0 5 5 1 76 5 27 0 0 0 0 0 0 0 0 1 11 3 1 5 0 0 0 0 0 0 0 0 0 0 0 0 0 0 0 0 0
0 0 0 0 0 0 0 1 5 5 5 16 4 1 5 0 0 0 0 0 0 0 0 0 0 0 0 0 0 0 0 0 0 0 0 0 0 0 0 0 0 0 0 0
0 0 0 0 0 0 0 0 0 5 5 30 5 3 5 2 0 0 0 0 0 0 0 0 0 0 0 0 0 0 0 0 0 0 0 0 0 0 0 0 0 0 0 0
0 0 0 0 0 0 0 2 36 80 77 24 10 1 33 1 0 0 0 0 0 0 0 0 0 0 0 0 0 0 0 0 0 0 0 0 0 0 0 0 0 0 0 0
0 0 0 0 0 0 0 4 65 100 100 100 5 0 0 0 0 0 0 0 0 0 0 0 0 0 0 0 0 0 0 0 0 0 0 0 0 0 0 0 0 0 0 0
0 0 0 0 0 0 0 0 16 100 100 100 19 0 0 0 0 0 0 0 0 0 0 0 0 0 0 0 0 0 0 0 0 0 0 0 0 0 0 0 0 0 0 0
0 0 0 0 0 0 0 0 8 66 100 100 100 5 5 0 0 0 0 0 0 0 0 0 0 0 0 0 0 0 0 0 0 0 0 0 0 0 0 0 0 0 0 0
0 0 0 0 0 0 0 0 2 33 97 100 100 7 4 0 0 0 0 0 0 0 0 0 0 0 0 0 0 0 0 0 0 0 0 0 0 0 0 0 0 0 0 11
0 0 0 0 0 0 0 0 2 20 93 98 100 100 0 0 0 0 0 0 0 0 0 0 0 0 0 0 0 0 0 0 0 0 0 0 0 0 0 0 0 0 1 14
0 0 0 0 0 0 0 0 3 5 36 3 11 86 3 4 0 0 0 0 0 0 0 0 0 0 0 0 0 0 0 0 0 0 0 0 0 0 0 0 2 5 5 89
0 0 0 0 0 0 0 0 2 5 4 19 0 22 5 71 0 0 0 5 1 0 0 0 0 0 0 0 0 0 0 0 0 0 0 0 0 0 0 0 1 0 18 49
0 0 0 0 0 0 0 0 0 3 1 9 4 0 61 100 2 0 0 5 1 0 0 0 0 0 0 0 0 0 0 0 0 0 0 0 0 0 0 1 1 3 50 56
0 0 0 0 0 0 0 0 0 1 0 5 4 21 0 34 5 0 0 0 0 0 0 0 0 0 0 0 0 0 0 0 0 0 0 0 5 5 5 4 0 55 84 84
0 0 0 0 0 0 0 0 0 0 0 0 0 3 100 94 10 2 0 0 0 0 0 0 0 0 0 0 0 0 0 0 0 0 0 2 4 1 30 23 17 98 88 70
0 0 0 0 0 0 0 0 0 0 3 0 1 20 96 31 84 5 0 3 3 4 0 0 0 0 0 0 0 0 0 0 0 0 0 0 0 0 0 3 62 100 75 62
0 0 0 0 0 0 0 0 0 0 95 1 4 5 38 52 46 5 5 0 0 0 0 0 0 0 0 0 0 0 0 0 0 0 0 0 1 0 0 1 70 86 100 55
0 0 0 0 0 0 0 0 0 0 4 5 26 5 21 5 4 5 5 1 5 0 5 5 5 0 0 0 0 0 0 0 0 0 0 0 0 0 0 22 97 95 63 39
0 0 0 0 0 0 0 0 0 0 72 5 100 66 4 2 85 87 62 4 4 1 5 7 6 5 4 0 0 0 0 0 0 0 0 3 0 0 4 60 100 90 58 42
0 0 0 0 0 0 0 0 0 0 3 0 82 100 92 53 100 86 49 17 5 5 5 8 59 93 5 0 0 0 0 4 0 0 0 17 2 0 48 100 100 90 60 59
0 0 0 0 0 0 0 0 0 0 4 4 3 0 14 49 50 63 5 6 5 5 8 55 5 61 40 5 5 3 5 1 2 5 50 77 6 7 89 100 100 95 94 62
1 0 0 0 0 0 0 0 0 0 0 0 0 0 0 0 4 5 4 0 0 5 5 7 96 98 70 19 36 66 5 0 1 5 5 3 22 61 100 100 96 42 75 91
53 0 2 0 2 0 0 0 0 0 0 0 0 0 0 0 0 0 5 0 0 1 3 0 89 78 98 78 12 7 11 4 0 0 0 5 5 97 100 51 56 33 13 5
87 26 0 84 0 0 0 0 0 0 0 0 0 0 0 0 0 0 0 0 0 0 0 0 4 55 22 5 5 1 0 5 0 0 0 5 6 68 97 52 75 75 37 22